| time (UTC) | temp F | wind direction | speed MPH | gust MPH | rain 1hr in | rain 24hr in | rain mn in | humidity % | barometer mb |
| 20260506181526 | 55 | 153 | 7.0 | 18.0 | 0.00 | 0.04 | 0.00 | 41 | 1017.1 |
| 20260506180017 | 54 | 182 | 8.0 | 18.0 | 0.00 | 0.04 | 0.00 | 44 | 1017.1 |
| 20260506174524 | 55 | 73 | 5.0 | 12.0 | 0.00 | 0.04 | 0.00 | 42 | 1017.1 |
| 20260506173026 | 53 | 167 | 5.0 | 12.0 | 0.00 | 0.04 | 0.00 | 44 | 1017.1 |
| 20260506171525 | 54 | 219 | 4.0 | 9.0 | 0.00 | 0.04 | 0.00 | 45 | 1016.9 |
| 20260506170024 | 53 | 268 | 3.0 | 10.0 | 0.00 | 0.04 | 0.00 | 53 | 1016.9 |
| 20260506164518 | 50 | 197 | 7.0 | 17.0 | 0.00 | 0.04 | 0.00 | 53 | 1017.0 |
| 20260506163025 | 49 | 181 | 6.0 | 16.0 | 0.00 | 0.04 | 0.00 | 53 | 1016.8 |
| 20260506161525 | 48 | 229 | 9.0 | 16.0 | 0.00 | 0.04 | 0.00 | 52 | 1016.8 |
| 20260506160021 | 48 | 194 | 5.0 | 11.0 | 0.00 | 0.04 | 0.00 | 57 | 1016.8 |
| 20260506154503 | 47 | 200 | 7.0 | 13.0 | 0.00 | 0.04 | 0.00 | 58 | 1016.8 |
| 20260506153003 | 46 | 213 | 5.0 | 17.0 | 0.00 | 0.04 | 0.00 | 61 | 1016.7 |
| 20260506151504 | 46 | 200 | 5.0 | 13.0 | 0.00 | 0.04 | 0.00 | 60 | 1016.8 |
| 20260506150020 | 45 | 217 | 8.0 | 15.0 | 0.00 | 0.04 | 0.00 | 61 | 1016.7 |
| 20260506144517 | 45 | 221 | 4.0 | 15.0 | 0.00 | 0.04 | 0.00 | 62 | 1016.7 |
| 20260506143004 | 44 | 220 | 7.0 | 11.0 | 0.00 | 0.04 | 0.00 | 62 | 1016.7 |
| 20260506141504 | 43 | 212 | 6.0 | 18.0 | 0.00 | 0.04 | 0.00 | 65 | 1016.8 |
| 20260506140006 | 43 | 200 | 3.0 | 11.0 | 0.00 | 0.04 | 0.00 | 67 | 1016.7 |
| 20260506134531 | 42 | 193 | 5.0 | 14.0 | 0.00 | 0.04 | 0.00 | 69 | 1016.4 |
| 20260506133016 | 41 | 186 | 9.0 | 16.0 | 0.00 | 0.04 | 0.00 | 71 | 1016.4 |
| 20260506130004 | 40 | 202 | 10.0 | 21.0 | 0.00 | 0.04 | 0.00 | 70 | 1016.3 |
| 20260506124507 | 38 | 307 | 3.0 | 14.0 | 0.00 | 0.04 | 0.00 | 76 | 1016.7 |
| 20260506123012 | 37 | 298 | 2.0 | 7.0 | 0.00 | 0.04 | 0.00 | 80 | 1016.1 |
| 20260506121518 | 37 | 187 | 7.0 | 12.0 | 0.00 | 0.04 | 0.00 | 80 | 1015.3 |
| 20260506120024 | 37 | 196 | 5.0 | 10.0 | 0.00 | 0.04 | 0.00 | 80 | 1015.3 |
| 20260506114511 | 37 | 201 | 6.0 | 9.0 | 0.00 | 0.04 | 0.00 | 80 | 1015.4 |
| 20260506113023 | 37 | 163 | 6.0 | 11.0 | 0.00 | 0.04 | 0.00 | 80 | 1015.5 |
| 20260506111516 | 37 | 169 | 6.0 | 12.0 | 0.00 | 0.04 | 0.00 | 80 | 1015.6 |
| 20260506110022 | 37 | 194 | 6.0 | 11.0 | 0.00 | 0.04 | 0.00 | 79 | 1015.4 |
| 20260506104525 | 38 | 169 | 4.0 | 9.0 | 0.00 | 0.04 | 0.00 | 79 | 1015.4 |
| 20260506103012 | 38 | 205 | 5.0 | 11.0 | 0.00 | 0.04 | 0.00 | 80 | 1015.3 |
| 20260506101513 | 38 | 179 | 3.0 | 8.0 | 0.00 | 0.04 | 0.00 | 80 | 1015.3 |
| 20260506100018 | 39 | 207 | 2.0 | 5.0 | 0.00 | 0.04 | 0.00 | 80 | 1015.3 |
| 20260506094522 | 39 | 177 | 1.0 | 5.0 | 0.00 | 0.04 | 0.00 | 79 | 1015.3 |
| 20260506093024 | 39 | 200 | 3.0 | 6.0 | 0.00 | 0.04 | 0.00 | 80 | 1015.2 |
| 20260506091512 | 40 | 229 | 1.0 | 7.0 | 0.00 | 0.04 | 0.00 | 76 | 1015.3 |
| 20260506090020 | 41 | 216 | 5.0 | 9.0 | 0.00 | 0.04 | 0.00 | 72 | 1015.2 |
| 20260506084521 | 39 | 255 | 3.0 | 7.0 | 0.00 | 0.04 | 0.00 | 73 | 1015.3 |
| 20260506081530 | 40 | 192 | 1.0 | 4.0 | 0.00 | 0.04 | 0.00 | 76 | 1015.4 |
| 20260506073023 | 41 | 327 | 2.0 | 4.0 | 0.00 | 0.04 | 0.00 | 77 | 1015.7 |
| 20260506071525 | 42 | 311 | 2.0 | 4.0 | 0.00 | 0.04 | 0.00 | 80 | 1015.6 |
| 20260506061524 | 43 | 303 | 3.0 | 7.0 | 0.00 | 0.04 | 0.00 | 79 | 1015.5 |
| 20260506044526 | 42 | 298 | 6.0 | 12.0 | 0.01 | 0.04 | 0.04 | 82 | 1015.4 |
| 20260506043002 | 42 | 295 | 4.0 | 8.0 | 0.03 | 0.04 | 0.04 | 84 | 1015.1 |
| 20260506041504 | 42 | 309 | 6.0 | 11.0 | 0.04 | 0.04 | 0.04 | 85 | 1015.2 |
| 20260506040004 | 42 | 318 | 6.0 | 13.0 | 0.03 | 0.03 | 0.03 | 85 | 1014.8 |
| 20260506034518 | 42 | 302 | 7.0 | 16.0 | 0.03 | 0.03 | 0.03 | 84 | 1015.0 |
| 20260506033010 | 44 | 286 | 9.0 | 17.0 | 0.01 | 0.01 | 0.01 | 77 | 1014.3 |
| 20260506031518 | 45 | 331 | 7.0 | 20.0 | 0.00 | 0.00 | 0.00 | 74 | 1014.2 |
| 20260506030013 | 46 | 318 | 11.0 | 18.0 | 0.00 | 0.00 | 0.00 | 71 | 1014.1 |
| 20260506024510 | 47 | 327 | 7.0 | 14.0 | 0.00 | 0.00 | 0.00 | 67 | 1013.9 |
| 20260506023012 | 48 | 295 | 4.0 | 14.0 | 0.00 | 0.00 | 0.00 | 63 | 1013.6 |
| 20260506021512 | 48 | 281 | 0.0 | 2.0 | 0.00 | 0.00 | 0.00 | 63 | 1013.2 |
| 20260506020020 | 49 | 298 | 1.0 | 3.0 | 0.00 | 0.00 | 0.00 | 61 | 1012.8 |
| 20260506014504 | 50 | 260 | 1.0 | 3.0 | 0.00 | 0.00 | 0.00 | 61 | 1012.8 |
| 20260506013009 | 50 | 285 | 0.0 | 3.0 | 0.00 | 0.00 | 0.00 | 60 | 1012.5 |
| 20260506011510 | 51 | 313 | 3.0 | 9.0 | 0.00 | 0.00 | 0.00 | 57 | 1012.5 |
| 20260506010020 | 52 | 300 | 4.0 | 10.0 | 0.00 | 0.00 | 0.00 | 52 | 1012.7 |
| 20260506004521 | 53 | 218 | 4.0 | 9.0 | 0.00 | 0.00 | 0.00 | 55 | 1012.4 |
| 20260506003005 | 53 | 211 | 5.0 | 8.0 | 0.00 | 0.00 | 0.00 | 53 | 1012.4 |
| 20260506001505 | 54 | 195 | 3.0 | 9.0 | 0.00 | 0.00 | 0.00 | 51 | 1012.3 |
| 20260506000013 | 56 | 202 | 2.0 | 9.0 | 0.00 | 0.00 | 0.00 | 49 | 1012.3 |
| 20260505234517 | 56 | 94 | 8.0 | 15.0 | 0.00 | 0.00 | 0.00 | 49 | 1012.3 |
| 20260505233022 | 57 | 259 | 6.0 | 14.0 | 0.00 | 0.00 | 0.00 | 46 | 1012.2 |
| 20260505231504 | 57 | 184 | 3.0 | 10.0 | 0.00 | 0.00 | 0.00 | 48 | 1012.2 |
| 20260505230032 | 55 | 204 | 7.0 | 11.0 | 0.00 | 0.00 | 0.00 | 54 | 1012.2 |
| 20260505224515 | 53 | 294 | 3.0 | 7.0 | 0.00 | 0.00 | 0.00 | 59 | 1012.4 |
| 20260505223022 | 51 | 183 | 2.0 | 10.0 | 0.00 | 0.00 | 0.00 | 66 | 1013.0 |
| 20260505221523 | 53 | 144 | 7.0 | 19.0 | 0.00 | 0.00 | 0.00 | 57 | 1012.9 |
| 20260505220010 | 54 | 195 | 5.0 | 17.0 | 0.00 | 0.00 | 0.00 | 56 | 1013.0 |
| 20260505214519 | 57 | 248 | 6.0 | 15.0 | 0.00 | 0.00 | 0.00 | 51 | 1012.8 |
| 20260505213025 | 58 | 240 | 5.0 | 12.0 | 0.00 | 0.00 | 0.00 | 52 | 1012.8 |
| 20260505211522 | 58 | 335 | 6.0 | 13.0 | 0.00 | 0.00 | 0.00 | 54 | 1013.0 |
| 20260505210030 | 55 | 258 | 5.0 | 14.0 | 0.00 | 0.00 | 0.00 | 55 | 1013.0 |
| 20260505204512 | 56 | 306 | 6.0 | 11.0 | 0.00 | 0.00 | 0.00 | 56 | 1013.2 |
| 20260505203020 | 57 | 293 | 4.0 | 12.0 | 0.00 | 0.00 | 0.00 | 56 | 1013.4 |
| 20260505201521 | 55 | 314 | 4.0 | 11.0 | 0.00 | 0.00 | 0.00 | 60 | 1013.4 |
| 20260505200033 | 55 | 299 | 4.0 | 15.0 | 0.00 | 0.00 | 0.00 | 59 | 1013.2 |
| 20260505194526 | 54 | 125 | 7.0 | 12.0 | 0.00 | 0.00 | 0.00 | 62 | 1013.3 |
| 20260505193011 | 52 | 114 | 7.0 | 15.0 | 0.00 | 0.00 | 0.00 | 74 | 1013.6 |
| 20260505191520 | 49 | 169 | 7.0 | 16.0 | 0.00 | 0.00 | 0.00 | 84 | 1013.6 |
| 20260505190004 | 51 | 160 | 8.0 | 14.0 | 0.00 | 0.00 | 0.00 | 69 | 1013.7 |
| 20260505184508 | 55 | 173 | 11.0 | 22.0 | 0.00 | 0.00 | 0.00 | 53 | 1013.7 |
| 20260505183011 | 57 | 190 | 8.0 | 15.0 | 0.00 | 0.00 | 0.00 | 51 | 1013.4 |